Погода в Ромитане

Узбекистан     39°55′59″N   64°22′57″E
темп.,
°C
ветер,
м/с
пор.,
м/с
влажн.,
%
обл.,
%
осадки,
мм/ч
давл.,
гПа
погр.,
м
28 сентября, вт
вт2823:00+17с47410 0.0 1016118
02:00+16с48440 0.0 1015141
05:00+15с48470 0.0 1015132
08:00+17с47410 0.0 1015213
11:00+24с44270 0.0 1015915
14:00+27с54180 0.0 10131352
17:00+26с55185 0.0 10121264
20:00+21ссв48264 0.0 1013125
29 сентября, ср
ср2923:00+19с48295 0.0 1013130
02:00+19ссв5113286 0.0 1013202
05:00+17ссв511350 0.0 1014178
08:00+18ссв711350 0.0 1016320
11:00+24ссв78250 0.0 1016844
14:00+27с76210 0.0 10151439
17:00+26с77230 0.0 10151465
20:00+21ссв510330 0.0 1016180
30 сентября, чт
чт3023:00+20ссв613330 0.0 1017318
02:00+18ссв713350 0.0 1016282
05:00+17ссв715370 0.0 1017324
08:00+18ссв814355 0.0 1017383
11:00+25ссв910230 0.0 1017747
14:00+27ссв99190 0.0 10151197
17:00+26ссв910200 0.0 10151203
20:00+22ссв915286 0.0 1016565
1 октября, пт
пт123:00+20св11173551 0.0 1015467
02:00+18св111638100 0.0 1015418
05:00+16ссв10174010 0.0 1016412
08:00+16ссв1117375 0.0 1017453
11:00+22св121426100 0.0 1017680
14:00+26ссв11122256 0.0 1015940
17:00+24ссв11132484 0.0 1016990
20:00+19ссв1116315 0.0 1018519
2 октября, сб
сб223:00+17ссв1015315 0.0 1018435
02:00+15ссв915345 0.0 1020473
05:00+13ссв915350 0.0 1021445
08:00+13ссв914355 0.0 1022480
11:00+18ссв1011271 0.0 1023717
14:00+21с892542 0.0 10221103
17:00+20с99245 0.0 10221199
20:00+16с712235 0.0 1023452